Regional Weather Roundup
Issued by NWS

Home | Current Version | Previous Version | Graphics & Text | Print | Product List | Glossary On
Versions: 1 2 3 4 5 6 7 8 9 10 11 12 13 14 15 16 17 18 19 20 21 22 23 24 25 26 27 28 29 30 31 32 33 34 35 36 37 38 39 40 41 42 43 44 45 46 47 48 49 50
000
ASUS43 KMKX 141520
RWRWI

WISCONSIN REGIONAL WEATHER ROUNDUP
NATIONAL WEATHER SERVICE MILWAUKEE/SULLIVAN WI
900 AM CST SUN FEB 14 2016

NOTE: "FAIR" INDICATES FEW OR NO CLOUDS BELOW 12,000 FEET WITH NO
SIGNIFICANT WEATHER AND/OR OBSTRUCTIONS TO VISIBILITY.

WIZ001-002-006>008-014>016-023>028-141600-
NORTHWEST WISCONSIN

CITY           SKY/WX    TMP DP  RH WIND       PRES   REMARKS
SUPERIOR ARPT  CLOUDY     6  -8  52 CALM      30.13S
ASHLAND        CLOUDY    -6 -11  79 CALM      30.14F
HAYWARD        CLOUDY     6 -10  47 S8        30.10F WCI  -7
SIREN          LGT SNOW   9   1  70 SE10      30.08F WCI  -6
CUMBERLAND     FLURRIES   5  -6  61 SE10      30.07F WCI -10
RICE LAKE      FLURRIES   7  -3  61 E10G16    30.11F WCI  -7
CHETEK         CLOUDY     8  -4  59 SE9       30.10F WCI  -6
LADYSMITH      CLOUDY     2  -9  57 SE8       30.14S WCI -11
EAU CLAIRE     CLOUDY     7  -6  55 SE9       30.13F WCI  -7
MENOMONIE      FLURRIES   9  -2  60 E8        30.12F WCI  -3
NEW RICHMOND   CLOUDY    10  -1  61 SE8       30.07F WCI  -2
OSCEOLA        CLOUDY    10   0  64 SE9       30.11S WCI  -3
$$

WIZ003>005-009-010-017-018-141600-
NORTH CENTRAL WISCONSIN

CITY           SKY/WX    TMP DP  RH WIND       PRES   REMARKS
MANITOWISH WTR CLOUDY     0 -12  57 SE12      30.11F WCI -17
ARBOR VITAE    CLOUDY     1  -9  61 SE7       30.11F WCI -11
WOODRUFF       CLOUDY     1  -9  61 SE7       30.11F WCI -11
RHINELANDER    CLOUDY    -7 -13  75 E6        30.13F WCI -20
EAGLE RIVER    CLOUDY    -1  -9  68 CALM      30.13F
LAND O LAKES   CLOUDY     2  -6  71 S5        30.13F WCI  -8
PHILLIPS       CLOUDY     0 -11  58 SE9       30.10F WCI -15
TOMAHAWK       CLOUDY    -2  -9  71 SE3       30.15F
MEDFORD        CLOUDY     1 -11  56 SE10G16   30.12F WCI -14
MERRILL        CLOUDY    -5 -12  71 SE5       30.18F WCI -15
$$

WIZ029-030-035-036-043>047-141600-
CENTRAL WISCONSIN

CITY           SKY/WX    TMP DP  RH WIND       PRES   REMARKS
WAUSAU         CLOUDY    -1  -9  68 E9        30.17F WCI -16
MOSINEE        SUNNY      1  -6  71 E8        30.18F WCI -12
MARSHFIELD     CLOUDY     4  -9  55 SE10      30.14F WCI -11
STEVENS POINT  CLOUDY     2 -10  56 SE8       30.20F WCI -11
WAUPACA        CLOUDY    -3 -10  72 CALM      30.25F
WAUTOMA        CLOUDY     3  -9  57 E3        30.24F
WISC RAPIDS    SUNNY      6  -8  52 SE8       30.20F WCI  -7
CAMP DOUGLAS   FLURRIES   9   0  66 SE9       30.17F WCI  -5
$$

WIZ011>013-019>022-031-037>040-048>050-141600-
NORTHEAST WISCONSIN

CITY           SKY/WX    TMP DP  RH WIND       PRES   REMARKS
ANTIGO         CLOUDY     0 -10  64 SE8       30.17F WCI -15
SHAWANO        CLOUDY    -5 -11  75 CALM      30.27F
OCONTO         CLOUDY    -3 -10  74 CALM      30.30F
STURGEON BAY   CLOUDY     9  -4  56 CALM      30.30F
GREEN BAY      CLOUDY     2  -5  72 NE5       30.28F WCI  -8
MANITOWOC      FLURRIES   8   1  73 CALM      30.29F
APPLETON       MOSUNNY    7  -6  56 CALM      30.23F
CLINTONVILLE   CLOUDY    -4  -9  77 CALM      30.25F
OSHKOSH        CLOUDY     5  -5  63 CALM      30.24F
$$

WIZ032>034-041-042-053>061-141600-
SOUTHWEST WISCONSIN

CITY           SKY/WX    TMP DP  RH WIND       PRES   REMARKS
LA CROSSE      LGT SNOW  13   3  64 SE13      30.15F WCI  -2
SPARTA         CLOUDY    11   1  63 SE6       30.18R WCI   2
VIROQUA        CLOUDY    11   4  74 SE15      30.10F WCI  -6
BOSCOBEL       LGT SNOW  15   6  67 VRB6      30.18F WCI   6
PRAIRIE DU CHI LGT SNOW  15   8  73 SE9       30.17R WCI   3
PLATTEVILLE    CLOUDY    15   9  78 SE20      30.15F WCI  -2
$$

WIZ056-057-062-063-064-067-068-141600-
SOUTH CENTRAL WISCONSIN

CITY           SKY/WX    TMP DP  RH WIND       PRES   REMARKS
REEDSBURG      CLOUDY    11   0  61 SE6       30.18F WCI   1
BARABOO/DELLS  CLOUDY    10  -1  60 SE8       30.18F WCI  -2
LONE ROCK      CLOUDY    14   3  61 SE10      30.21S WCI   1
MINERAL POINT  FLURRIES  16   9  73 SE16      30.14S WCI   0
MADISON        CLOUDY    13   1  59 SE15      30.20F WCI  -3
MIDDLETON      CLOUDY    16   3  57 SE12G17   30.20F WCI   2
WATERTOWN      CLOUDY    14   0  52 SE13G20   30.23F WCI   0
MONROE         CLOUDY    16   7  67 SE15G23   30.17F WCI   1
JANESVILLE     CLOUDY    18   1  49 SE16      30.22F WCI   3
$$

WIZ051-052-058>065-066-070>072-141600-
SOUTHEAST WISCONSIN

CITY           SKY/WX    TMP DP  RH WIND       PRES   REMARKS
MILWAUKEE      FLURRIES  15   7  70 S8        30.28F WCI   4
WAUKESHA       SUNNY      9   1  72 SE17G23   30.27F WCI -10
MILWAUKEE/TIMM FLURRIES  16   5  62 S12       30.27F WCI   3
RACINE         CLOUDY    19   9  65 SE20      30.29F WCI   3
BURLINGTON     CLOUDY    13   2  61 SE12G18   30.25F WCI   0
KENOSHA        CLOUDY    18   8  65 SE22G28   30.26F WCI   1
FOND DU LAC    FLURRIES  10  -1  61 S8        30.24F WCI  -2
SHEBOYGAN      LGT SNOW   9   3  77 CALM      30.28F
WEST BEND      CLOUDY    12   1  62 CALM      30.25F
JUNEAU         CLOUDY    10  -2  56 SE10      30.24F WCI  -3
$$

LSZ147-162-141600-
LAKE SUPERIOR

STATION/POSITION TIME  TEMP    WIND        PRES    WAVE
                       AIR SEA DIR/SP/G            HT/PER
                 (UTC) (F)     (DEG/KT/KT) (MB)    (FT/S)
DEVILS ISLAND    1500    8     160/ 10/ 13 1022.6F
SAXON HARBOR     1400                      1021.7
$$

LMZ867-665-643>646-141600-
LAKE MICHIGAN

STATION/POSITION TIME  TEMP    WIND        PRES    WAVE
                       AIR SEA DIR/SP/G            HT/PER
                 (UTC) (F)     (DEG/KT/KT) (MB)    (FT/S)
CHAMBERS ISLAND  1400    7     190/  2/  3 1027.1F
SISTER BAY       1319    1        CALM       N/A
ALGOMA LAKESHORE 1426           CALM  /  1   N/A
KEWAUNEE LAKESHO 1400   -3     290/  5/  7 1026.1F
SHEBOYGAN LAKESH 1500   13     220/  5/  7 1027.3F
PORT WASHINGTON  1400   14     210/  3/  7 1027.4F
MILWAUKEE LAKESH 1410   15     190/ 10/ 12   N/A
KENOSHA   LAKESH 1500   18     140/ 24/ 30 1024.7F
$$

TC  - TEMPERATURE IN CELSIUS
VSB - VISIBILITY IN STATUTE MILES
WCI - WIND CHILL INDEX
HX  - HEAT INDEX




USA.gov is the U.S. government's official web portal to all federal, state and local government web resources and services.